Location: Marcé
(47.5801°N, 0.3280°W)
Time: 22:50:57
(UTC+01:00)

Transit 2A - Pass Details

Date: 01 December 2021
Orbit: 591 x 967 km, 66.7° (Epoch: 23 January)

Event Time Altitude Azimuth Distance (km) Brightness Sun altitude
Rises 01:18:48 0° 191° (S) 3,261 - -63.6°
Reaches altitude 10° 01:21:11 10° 184° (S) 2,394 - -63.5°
Maximum altitude 01:26:26 45° 114° (ESE) 1,180 - -63.2°
Drops below altitude 10° 01:32:12 10° 44° (NE) 2,627 - -62.9°
Sets 01:34:56 0° 39° (NE) 3,611 - -62.7°
